FW9002 Weather Reports


Display with metric or nautical units.
time (UTC)temp
F
wind
direction
speed
MPH
gust
MPH
rain 1hr
in
rain 24hr
in
rain mn
in
humidity
%
barometer
mb
20260505170036 69 9 1.0 1.0 0.00 0.19 0.19 58 1011.8
20260505165531 69 328 3.0 3.0 0.00 0.19 0.19 61 1011.7
20260505165027 68 93 0.0 0.0 0.00 0.19 0.19 62 1011.8
20260505164523 67 6 0.0 0.0 0.00 0.19 0.19 65 1011.5
20260505164021 66 63 1.0 2.0 0.00 0.19 0.19 66 1011.8
20260505163519 66 23 1.0 1.0 0.00 0.19 0.19 65 1011.9
20260505163016 66 1 1.0 2.0 0.00 0.19 0.19 67 1011.8
20260505162509 65 266 0.0 0.0 0.00 0.19 0.19 67 1011.9
20260505162006 65 300 1.0 1.0 0.00 0.19 0.19 67 1011.9
20260505161503 65 194 0.0 0.0 0.00 0.19 0.19 70 1011.9
20260505161000 64 193 0.0 0.0 0.00 0.19 0.19 68 1011.9
20260505160458 65 156 1.0 0.0 0.00 0.19 0.19 68 1012.0
20260505152934 64 184 0.0 0.0 0.00 0.19 0.19 82 1011.7
20260505152432 64 183 0.0 0.0 0.00 0.19 0.19 78 1011.5
20260505151931 63 202 0.0 0.0 0.00 0.19 0.19 81 1011.7
20260505151422 63 202 0.0 0.0 0.00 0.19 0.19 83 1011.5
20260505150920 63 202 0.0 0.0 0.00 0.19 0.19 84 1011.7
20260505150416 63 202 0.0 0.0 0.00 0.19 0.19 84 1011.6
20260505140346 60 94 0.0 0.0 0.00 0.19 0.19 91 1011.4
20260505130309 59 123 0.0 0.0 0.00 0.19 0.19 93 1011.0
20260505124800 59 125 0.0 0.0 0.00 0.19 0.19 94 1010.6
20260505124256 59 125 0.0 0.0 0.07 0.19 0.19 94 1010.9
20260505123752 59 126 0.0 0.0 0.07 0.19 0.19 93 1010.6
20260505123249 59 125 0.0 0.0 0.00 0.18 0.18 93 1010.6
20260505122745 59 126 0.0 0.0 0.00 0.18 0.18 93 1010.5
20260505122243 59 126 0.0 0.0 0.00 0.18 0.18 93 1010.4
20260505121739 59 111 0.0 0.0 0.00 0.18 0.18 93 1010.4
20260505121236 59 111 0.0 0.0 0.00 0.18 0.18 93 1010.3
20260505120732 58 111 0.0 0.0 0.00 0.18 0.18 93 1010.2
20260505120228 58 111 0.0 0.0 0.00 0.18 0.18 93 1010.4
20260505115727 58 112 1.0 1.0 0.00 0.18 0.18 94 1010.4
20260505115225 58 111 0.0 0.0 0.07 0.18 0.18 93 1010.3
20260505114722 58 111 0.0 0.0 0.07 0.18 0.18 93 1010.1
20260505114218 58 111 0.0 0.0 0.00 0.17 0.17 93 1010.1
20260505113715 58 111 0.0 0.0 0.00 0.17 0.17 93 1010.1
20260505113212 58 111 0.0 0.0 0.00 0.17 0.17 92 1010.4
20260505112708 58 111 0.0 0.0 0.00 0.17 0.17 92 1010.6
20260505112206 58 97 0.0 0.0 0.00 0.17 0.17 92 1010.6
20260505111705 58 97 0.0 0.0 0.00 0.17 0.17 92 1010.3
20260505111201 58 96 0.0 0.0 0.05 0.17 0.17 91 1010.3
20260505110658 58 96 0.0 0.0 0.05 0.17 0.17 91 1010.5
20260505110155 58 106 0.0 0.0 0.00 0.16 0.16 91 1010.9
20260505102131 58 69 1.0 1.0 0.05 0.15 0.15 92 1011.3
20260505101629 58 72 0.0 1.0 0.00 0.14 0.14 92 1011.5
20260505101125 58 66 1.0 1.0 0.00 0.14 0.14 92 1011.5
20260505100621 58 79 0.0 0.0 0.00 0.14 0.14 92 1011.7
20260505100119 58 69 1.0 1.0 0.00 0.14 0.14 92 1011.5
20260505095615 58 62 0.0 0.0 0.00 0.14 0.14 92 1012.0
20260505095111 58 47 2.0 3.0 0.07 0.14 0.14 92 1012.0
20260505094608 58 68 0.0 0.0 0.07 0.14 0.14 91 1011.8
20260505094104 58 85 1.0 1.0 0.05 0.13 0.13 92 1012.0
20260505093600 58 99 4.0 6.0 0.05 0.13 0.13 92 1011.4
20260505093058 59 81 2.0 2.0 0.07 0.12 0.12 92 1011.8
20260505092555 58 74 3.0 3.0 0.07 0.12 0.12 92 1012.6
20260505092054 58 81 2.0 2.0 0.05 0.11 0.11 92 1012.5
20260505091550 58 71 3.0 3.0 0.05 0.11 0.11 92 1012.1
20260505091049 58 90 2.0 6.0 0.07 0.10 0.10 92 1012.4
20260505090546 59 89 2.0 2.0 0.07 0.10 0.10 91 1012.4
20260505090044 59 84 3.0 3.0 0.00 0.09 0.09 91 1012.8
20260505085541 59 108 2.0 2.0 0.00 0.09 0.09 91 1012.8
20260505085039 59 105 3.0 3.0 0.00 0.09 0.09 91 1012.8
20260505084537 59 89 3.0 7.0 0.05 0.09 0.09 92 1012.8
20260505084035 59 98 2.0 2.0 0.05 0.09 0.09 92 1013.1
20260505083532 59 103 2.0 2.0 0.00 0.08 0.08 92 1013.3
20260505083029 59 83 1.0 1.0 0.00 0.08 0.08 92 1013.4
20260505082524 59 114 1.0 2.0 0.00 0.08 0.08 93 1013.8
20260505082021 59 86 1.0 1.0 0.07 0.08 0.08 93 1013.6
20260505081518 59 92 1.0 1.0 0.07 0.08 0.08 93 1013.8
20260505081015 59 110 0.0 1.0 0.05 0.07 0.07 93 1013.9
20260505080511 59 113 2.0 2.0 0.05 0.07 0.07 93 1014.0
20260505080008 59 101 1.0 1.0 0.07 0.06 0.06 93 1014.0
20260505075504 59 126 2.0 2.0 0.14 0.06 0.06 93 1014.2
20260505075001 59 97 0.0 0.0 0.12 0.05 0.05 93 1014.3
20260505074458 59 86 1.0 2.0 0.05 0.04 0.04 93 1014.4
20260505073955 59 88 0.0 0.0 0.05 0.04 0.04 92 1014.6
20260505073452 59 88 0.0 1.0 0.07 0.03 0.03 92 1014.6
20260505072950 59 88 1.0 1.0 0.07 0.03 0.03 92 1014.5
20260505072446 59 88 0.0 0.0 0.05 0.02 0.02 93 1014.3
20260505071942 60 88 0.0 0.0 0.12 0.02 0.02 92 1014.3
20260505071438 60 88 0.0 0.0 0.07 0.01 0.01 92 1014.0
20260505070936 59 88 1.0 1.0 0.00 0.00 0.00 92 1014.3
20260505070433 59 88 0.0 0.0 0.05 0.00 0.00 92 1014.3
20260505065928 59 88 0.0 1.0 0.05 0.32 0.32 92 1014.0
20260505065425 59 93 0.0 0.0 0.00 0.31 0.31 92 1014.0
20260505064922 59 104 0.0 0.0 0.07 0.31 0.31 92 1013.9
20260505064419 59 106 0.0 0.0 0.12 0.31 0.31 92 1014.3
20260505063917 59 106 0.0 0.0 0.05 0.30 0.30 92 1014.0
20260505063413 59 109 0.0 0.0 0.12 0.30 0.30 92 1014.0
20260505062910 59 113 1.0 1.0 0.12 0.29 0.29 92 1014.0
20260505062408 59 124 0.0 0.0 0.12 0.28 0.28 91 1013.9
20260505061904 59 126 1.0 1.0 0.14 0.27 0.27 90 1014.1
20260505061402 59 85 1.0 1.0 0.07 0.26 0.26 90 1014.2
20260505060859 60 82 0.0 0.0 0.05 0.25 0.25 89 1014.2
20260505060356 60 80 3.0 2.0 0.05 0.25 0.25 88 1014.2
20260505055852 60 100 1.0 1.0 0.00 0.24 0.24 88 1014.0
20260505055348 60 73 1.0 1.0 0.07 0.24 0.24 89 1014.0
20260505054846 60 86 0.0 0.0 0.07 0.24 0.24 89 1014.1
20260505054343 60 86 1.0 1.0 0.00 0.23 0.23 89 1013.5
20260505053841 60 109 1.0 1.0 0.00 0.23 0.23 89 1013.8
20260505053338 60 104 0.0 0.0 0.05 0.23 0.23 87 1013.9
20260505052834 60 108 0.0 0.0 0.05 0.23 0.23 87 1014.1
20260505052331 60 117 0.0 1.0 0.07 0.22 0.22 87 1014.1
20260505051828 60 121 1.0 1.0 0.07 0.22 0.22 88 1014.0
20260505051326 60 112 1.0 1.0 0.00 0.21 0.21 87 1013.9
20260505050824 60 73 0.0 0.0 0.00 0.21 0.21 87 1013.8
20260505050322 60 57 0.0 0.0 0.00 0.21 0.21 85 1014.0
20260505041746 60 96 0.0 0.0 0.00 0.20 0.20 81 1013.9
20260505041243 60 129 1.0 2.0 0.00 0.20 0.20 81 1014.0
20260505040741 60 221 0.0 0.0 0.00 0.20 0.20 80 1013.9
20260505040238 60 222 0.0 0.0 0.00 0.20 0.20 78 1013.9
20260505035735 60 176 2.0 2.0 0.00 0.20 0.20 80 1013.6
20260505035231 60 56 2.0 2.0 0.00 0.20 0.20 79 1013.5
20260505034728 60 115 2.0 3.0 0.00 0.20 0.20 79 1013.4
20260505034225 59 141 2.0 2.0 0.00 0.20 0.20 78 1013.4
20260505033721 59 76 4.0 5.0 0.00 0.20 0.20 78 1013.1
20260505033219 59 182 2.0 2.0 0.00 0.20 0.20 80 1013.2
20260505032717 58 124 0.0 0.0 0.00 0.20 0.20 80 1013.1
20260505032212 58 86 1.0 1.0 0.07 0.20 0.20 80 1013.0
20260505031710 58 88 2.0 2.0 0.07 0.20 0.20 80 1013.0
20260505031206 58 54 4.0 5.0 0.00 0.19 0.19 79 1013.0
20260505030703 58 61 2.0 2.0 0.05 0.19 0.19 80 1013.1
20260505030159 58 80 3.0 3.0 0.05 0.19 0.19 80 1013.5
20260505025655 58 93 4.0 5.0 0.07 0.18 0.18 82 1013.8
20260505025154 58 61 2.0 2.0 0.12 0.18 0.18 84 1014.1
20260505024651 59 78 1.0 1.0 0.05 0.17 0.17 83 1014.4
20260505024148 59 81 2.0 2.0 0.07 0.16 0.16 82 1014.3
20260505023646 59 94 1.0 2.0 0.12 0.16 0.16 77 1014.1
20260505023143 60 78 1.0 1.0 0.12 0.15 0.15 77 1014.0
20260505022640 60 121 1.0 1.0 0.07 0.14 0.14 74 1014.1
20260505022137 60 117 2.0 2.0 0.07 0.13 0.13 74 1013.9
20260505021634 60 111 1.0 1.0 0.07 0.13 0.13 79 1014.2
20260505021131 60 150 1.0 1.0 0.17 0.12 0.12 80 1014.2
20260505020626 61 41 2.0 2.0 0.28 0.12 0.12 80 1013.8
20260505020122 62 20 1.0 1.0 0.24 0.09 0.09 73 1013.9
20260505015620 62 63 0.0 0.0 0.12 0.07 0.07 79 1014.0
20260505015116 62 43 0.0 0.0 0.17 0.06 0.06 73 1013.6
20260505014613 63 43 0.0 0.0 0.12 0.05 0.05 70 1013.6
20260505014110 63 43 0.0 0.0 0.00 0.03 0.03 67 1013.6
20260505013608 63 43 0.0 0.0 0.07 0.03 0.03 66 1013.9
20260505013105 63 8 0.0 0.0 0.07 0.03 0.03 68 1013.3
20260505012603 64 4 0.0 0.0 0.00 0.02 0.02 68 1013.2
20260505012059 64 53 0.0 0.0 0.00 0.02 0.02 65 1013.0
20260505011555 64 10 1.0 1.0 0.00 0.02 0.02 67 1012.7
20260505011053 65 16 1.0 1.0 0.05 0.02 0.02 66 1012.7
20260505010548 66 27 0.0 0.0 0.05 0.02 0.02 63 1012.5
20260505010044 66 36 1.0 1.0 0.00 0.01 0.01 56 1012.5
20260505005540 66 241 0.0 0.0 0.00 0.01 0.01 54 1013.0
20260505005038 67 240 0.0 0.0 0.00 0.01 0.01 53 1012.8
20260505004535 67 238 1.0 0.0 0.00 0.01 0.01 51 1012.9
20260505004032 68 314 0.0 0.0 0.07 0.01 0.01 48 1012.8
20260505003529 68 287 0.0 0.0 0.07 0.01 0.01 53 1012.8
20260505003027 68 291 0.0 0.0 0.00 0.00 0.00 49 1013.1
20260505002526 69 271 0.0 0.0 0.00 0.00 0.00 49 1012.6
20260505002026 69 303 0.0 1.0 0.00 0.00 0.00 46 1012.8
20260505001523 70 295 1.0 2.0 0.00 0.00 0.00 41 1012.7
20260505001020 72 345 0.0 0.0 0.00 0.00 0.00 40 1012.6
20260505000517 72 267 1.0 2.0 0.00 0.00 0.00 34 1012.2
20260505000015 73 301 2.0 3.0 0.00 0.00 0.00 32 1012.5
20260504235511 73 307 3.0 5.0 0.00 0.00 0.00 30 1012.1
20260504235008 73 293 1.0 2.0 0.00 0.00 0.00 30 1011.5
20260504234505 73 301 2.0 3.0 0.00 0.00 0.00 30 1011.7
20260504234002 73 299 3.0 5.0 0.00 0.00 0.00 30 1011.9
20260504233457 74 319 6.0 7.0 0.00 0.00 0.00 29 1012.0
20260504232954 74 342 3.0 3.0 0.00 0.00 0.00 29 1012.2
20260504232451 74 253 6.0 9.0 0.00 0.00 0.00 28 1012.4
20260504231949 75 298 7.0 8.0 0.00 0.00 0.00 28 1012.5
20260504231445 76 295 5.0 5.0 0.00 0.00 0.00 27 1012.6
20260504230941 77 308 5.0 6.0 0.00 0.00 0.00 23 1012.1
20260504230438 77 272 6.0 8.0 0.00 0.00 0.00 23 1012.1
20260504225937 78 309 4.0 9.0 0.00 0.00 0.00 22 1011.8
20260504225433 78 255 3.0 3.0 0.00 0.00 0.00 22 1011.8
20260504224931 78 280 4.0 5.0 0.00 0.00 0.00 21 1011.7
20260504224427 79 292 6.0 8.0 0.00 0.00 0.00 21 1011.7
20260504223924 79 282 7.0 10.0 0.00 0.00 0.00 20 1011.5
20260504223420 79 283 5.0 7.0 0.00 0.00 0.00 19 1011.8
20260504222916 79 280 5.0 6.0 0.00 0.00 0.00 19 1011.7
20260504222414 79 324 3.0 3.0 0.00 0.00 0.00 20 1011.6
20260504221911 80 341 5.0 7.0 0.00 0.00 0.00 19 1011.7
20260504221408 80 319 2.0 2.0 0.00 0.00 0.00 19 1011.5
20260504220905 80 312 5.0 6.0 0.00 0.00 0.00 18 1011.7
20260504220402 80 304 3.0 3.0 0.00 0.00 0.00 18 1011.7
20260504215859 81 303 5.0 7.0 0.00 0.00 0.00 18 1011.6
20260504215355 81 289 4.0 6.0 0.00 0.00 0.00 18 1011.8
20260504214851 82 270 9.0 10.0 0.00 0.00 0.00 18 1011.6
20260504214348 82 6 3.0 3.0 0.00 0.00 0.00 19 1011.6
20260504213845 82 277 3.0 5.0 0.00 0.00 0.00 18 1011.4
20260504213341 82 294 5.0 7.0 0.00 0.00 0.00 18 1011.4
20260504212838 83 294 3.0 3.0 0.00 0.00 0.00 19 1011.4
20260504212334 83 308 3.0 3.0 0.00 0.00 0.00 17 1011.5
20260504211832 83 312 2.0 3.0 0.00 0.00 0.00 17 1011.5
20260504211328 83 310 1.0 2.0 0.00 0.00 0.00 16 1011.4
20260504210826 83 253 2.0 3.0 0.00 0.00 0.00 16 1011.4
20260504210323 83 295 3.0 5.0 0.00 0.00 0.00 16 1011.7
20260504205820 83 247 5.0 6.0 0.00 0.00 0.00 16 1011.6
20260504205317 83 296 5.0 7.0 0.00 0.00 0.00 16 1011.7
20260504204815 84 260 3.0 3.0 0.00 0.00 0.00 16 1011.5
20260504204314 84 265 2.0 2.0 0.00 0.00 0.00 16 1011.5
20260504203813 84 260 4.0 5.0 0.00 0.00 0.00 16 1011.6
20260504203309 84 276 3.0 2.0 0.00 0.00 0.00 16 1011.6
20260504202804 84 209 4.0 5.0 0.00 0.00 0.00 15 1011.9
20260504202304 84 244 2.0 5.0 0.00 0.00 0.00 17 1011.8
20260504201759 84 284 3.0 3.0 0.00 0.00 0.00 17 1011.8
20260504201256 83 257 3.0 3.0 0.00 0.00 0.00 17 1011.8
20260504200754 83 251 1.0 2.0 0.00 0.00 0.00 18 1012.1
20260504200249 84 212 2.0 2.0 0.00 0.00 0.00 17 1011.9
20260504195746 83 216 3.0 3.0 0.00 0.00 0.00 17 1011.9
20260504195242 83 262 2.0 2.0 0.00 0.00 0.00 18 1011.9
20260504194739 82 359 1.0 1.0 0.00 0.00 0.00 18 1011.9
20260504194235 82 273 3.0 5.0 0.00 0.00 0.00 18 1011.8
20260504193732 82 1 1.0 1.0 0.00 0.00 0.00 20 1011.9
20260504193229 82 248 1.0 1.0 0.00 0.00 0.00 19 1012.1
20260504192727 82 350 2.0 2.0 0.00 0.00 0.00 20 1012.1
20260504192225 82 82 0.0 0.0 0.00 0.00 0.00 20 1011.9
20260504191724 81 142 3.0 3.0 0.00 0.00 0.00 20 1012.1
20260504191220 82 207 3.0 5.0 0.00 0.00 0.00 20 1012.1
20260504190715 81 149 0.0 0.0 0.00 0.00 0.00 20 1012.4
20260504190212 80 203 2.0 2.0 0.00 0.00 0.00 21 1012.0
20260504185709 80 296 4.0 6.0 0.00 0.00 0.00 21 1012.1
20260504185206 81 239 3.0 2.0 0.00 0.00 0.00 21 1012.4
20260504184702 80 251 3.0 5.0 0.00 0.00 0.00 21 1012.6
20260504184157 80 344 1.0 1.0 0.00 0.00 0.00 22 1012.4
20260504183654 80 296 2.0 2.0 0.00 0.00 0.00 23 1012.6
20260504183151 79 68 1.0 1.0 0.00 0.00 0.00 22 1012.6
20260504182649 79 163 3.0 3.0 0.00 0.00 0.00 22 1012.6
20260504182146 80 212 3.0 3.0 0.00 0.00 0.00 22 1012.9
20260504181643 80 259 2.0 2.0 0.00 0.00 0.00 22 1012.6
20260504181141 79 274 4.0 7.0 0.00 0.00 0.00 22 1013.0
20260504180640 79 215 5.0 7.0 0.00 0.00 0.00 22 1012.9
20260504180138 79 141 0.0 0.0 0.00 0.00 0.00 22 1012.8
20260504175635 79 206 3.0 5.0 0.00 0.00 0.00 23 1013.0
20260504175131 79 202 2.0 3.0 0.00 0.00 0.00 22 1013.1
20260504174630 78 166 1.0 1.0 0.00 0.00 0.00 23 1013.1
20260504174126 78 207 4.0 5.0 0.00 0.00 0.00 23 1013.4
20260504173623 78 184 4.0 3.0 0.00 0.00 0.00 23 1013.0
20260504173121 77 191 2.0 2.0 0.00 0.00 0.00 23 1013.0
20260504172617 77 245 4.0 5.0 0.00 0.00 0.00 23 1013.0
20260504172114 77 221 2.0 2.0 0.00 0.00 0.00 24 1013.2
20260504171610 77 193 4.0 5.0 0.00 0.00 0.00 24 1013.2
20260504171108 77 227 4.0 5.0 0.00 0.00 0.00 23 1013.2
20260504170603 77 260 9.0 10.0 0.00 0.00 0.00 23 1013.0